Regional Weather Roundup
Issued by NWS

Home | Current Version | Previous Version | Graphics & Text | Print | Product List | Glossary On
Versions: 1 2 3 4 5 6 7 8 9 10 11 12 13 14 15 16 17 18 19 20 21 22 23 24 25 26 27 28 29 30 31 32 33 34 35 36 37 38 39 40 41 42 43 44 45 46 47 48 49 50
000
ASUS43 KIND 070759
RWRIN

WEATHER ROUNDUP FOR INDIANA
NATIONAL WEATHER SERVICE INDIANAPOLIS IN
400 AM EDT THU MAY 07 2015

NOTE: "FAIR" INDICATES FEW OR NO CLOUDS BELOW 12,000 FEET WITH NO
SIGNIFICANT WEATHER AND/OR OBSTRUCTIONS TO VISIBILITY.

* - STATION DOES NOT REPORT WEATHER SUCH AS PRECIPITATION OR FOG.

+ - STATION NOT QUALITY CONTROLLED BY THE NATIONAL WEATHER SERVICE.
    USE DATA WITH CAUTION...ESPECIALLY DEWPOINT AND RELATIVE
    HUMIDITY OBSERVATIONS.

INZ001>003-010>013-019-020-070900-
NORTHWEST INDIANA

CITY           SKY/WX    TMP DP  RH WIND       PRES   REMARKS

$$

LMZ046-743>745-070900-
SOUTHERN LAKE MICHIGAN

STATION/POSITION TIME  TEMP    WIND        PRES    WAVE
                       AIR SEA DIR/SP/G            HT
                 (UTC) (F)     (DEG/KT/KT) (MB)    (FT)
BURNS HARBOR     0700   69     140/ 12/ 17 1018.6F
MICHIGAN CITY    0700   68     120/ 10/ 12   N/A
5NW MICH CITY    0700   61 53  160/  8/ 10   N/A     1

$$

INZ004-005-014>016-021>024-070900-
NORTH CENTRAL INDIANA

CITY           SKY/WX    TMP DP  RH WIND       PRES   REMARKS
GOSHEN         CLEAR     60  57  89 SE3       30.12S FOG
SOUTH BEND     CLEAR     63  60  90 E6        30.12S FOG

$$

INZ006>009-017-018-025>027-070900-
NORTHEAST INDIANA

CITY           SKY/WX    TMP DP  RH WIND       PRES   REMARKS
ANGOLA *+      CLEAR     57  55  94 SE7       30.14S
FORT WAYNE     CLEAR     57  55  93 E7        30.13F

$$

INZ028-029-035-036-043>045-051>053-070900-
WEST CENTRAL INDIANA

CITY           SKY/WX    TMP DP  RH WIND       PRES   REMARKS
GREENCASTLE +  CLEAR     61  50  67 CALM      30.09F
LAFAYETTE      CLEAR     57  54  89 E7        30.07F
TERRE HAUTE    CLEAR     61  55  81 CALM      30.07F

$$

INZ030>032-037>040-046>048-054>057-064-065-070900-
CENTRAL INDIANA

CITY           SKY/WX    TMP DP  RH WIND       PRES   REMARKS
GREENWOOD *+   CLEAR     63  52  67 CALM      30.10S
INDIANAPOLIS   CLEAR     65  52  62 CALM      30.08S
-EAGLE CREEK   CLEAR     60  55  83 CALM      30.09S
KOKOMO *+      CLEAR     61  55  82 E6        30.10F
MT COMFORT *+  CLEAR     64  45  48 SE3       30.11S
SHELBYVILLE    CLEAR     61  52  72 E7        30.09F

$$

INZ033-034-041-042-049-050-058-059-070900-
EAST CENTRAL INDIANA

CITY           SKY/WX    TMP DP  RH WIND       PRES   REMARKS
MUNCIE         CLEAR     63  57  81 SE3       30.12R

$$

INZ060-061-067>069-081>083-085>088-070900-
SOUTHWEST INDIANA

CITY           SKY/WX    TMP DP  RH WIND       PRES   REMARKS
EVANSVILLE     CLEAR     63  58  83 CALM      30.08S
HUNTINGBURG *+ PTCLDY    63  55  77 CALM      30.08S

$$

INZ062-063-066-070>080-084-089>092-070900-
SOUTH CENTRAL AND SOUTHEAST INDIANA

CITY           SKY/WX    TMP DP  RH WIND       PRES   REMARKS
BLOOMINGTON    CLEAR     59  54  83 CALM      30.09S
MADISON *+     PTCLDY    61  54  77 CALM      30.11S
SEYMOUR +      PTCLDY    57  55  94 CALM      30.09S

$$



USA.gov is the U.S. government's official web portal to all federal, state and local government web resources and services.